VORF Weather Reports


time (UTC)temp
F
wind
direction
speed
knots
gust
knots
rain 1hr
in
rain 24hr
in
rain mn
in
humidity
%
barometer
mb
20260504044552 58 202 3.5 7.8 0.00 0.00 0.00 66 1004.8
20260504043053 58 0 0.9 3.5 0.00 0.00 0.00 66 1004.8
20260504041545 58 161 0.9 3.5 0.00 0.00 0.00 65 1004.8
20260504040046 58 163 0.9 2.6 0.00 0.00 0.00 65 1004.9
20260504034555 58 160 0.9 3.5 0.00 0.00 0.00 65 1005.2
20260504033043 59 188 0.9 2.6 0.00 0.00 0.00 63 1005.3
20260504031544 60 180 0.9 2.6 0.00 0.00 0.00 62 1005.5
20260504030048 61 203 0.9 6.1 0.00 0.00 0.00 59 1005.5
20260504024548 61 176 1.7 5.2 0.00 0.00 0.00 58 1005.6
20260504023048 62 0 1.7 7.0 0.00 0.00 0.00 57 1005.5
20260504021541 63 221 2.6 7.0 0.00 0.00 0.00 56 1005.5
20260504020044 63 242 1.7 8.7 0.00 0.00 0.00 55 1005.2
20260504014543 64 225 2.6 6.1 0.00 0.00 0.00 54 1005.0
20260504013101 65 237 2.6 6.1 0.00 0.00 0.00 52 1004.9
20260504011543 65 221 3.5 7.0 0.00 0.00 0.00 51 1004.8
20260504010048 66 219 4.3 8.7 0.00 0.00 0.00 50 1004.9
20260504004546 66 234 2.6 12.2 0.00 0.00 0.00 49 1004.9
20260504003048 67 268 4.3 13.0 0.00 0.00 0.00 48 1004.8
20260504001547 67 242 4.3 13.0 0.00 0.00 0.00 46 1004.8
20260504000041 68 277 5.2 13.9 0.00 0.00 0.00 45 1004.7
20260503234549 69 299 4.3 18.2 0.00 0.00 0.00 44 1004.8
20260503233040 69 263 6.1 14.8 0.00 0.00 0.00 43 1004.8
20260503231543 69 185 5.2 13.0 0.00 0.00 0.00 43 1004.8
20260503230044 68 244 2.6 11.3 0.00 0.00 0.00 43 1005.0
20260503224542 69 229 6.1 16.5 0.00 0.00 0.00 42 1005.2
20260503223044 68 166 6.1 16.5 0.00 0.00 0.00 43 1005.3
20260503221558 68 244 4.3 17.4 0.00 0.00 0.00 43 1005.6
20260503220043 67 241 6.1 15.6 0.00 0.00 0.00 42 1005.7
20260503214545 67 213 8.7 20.9 0.00 0.00 0.00 42 1006.0
20260503213046 67 290 9.6 18.2 0.00 0.00 0.00 42 1006.4
20260503211544 67 209 5.2 16.5 0.00 0.00 0.00 41 1006.5
20260503210042 66 232 6.1 15.6 0.00 0.00 0.00 41 1006.7
20260503204606 67 171 6.1 16.5 0.00 0.00 0.00 40 1006.9
20260503203045 65 254 7.0 20.9 0.00 0.00 0.00 41 1007.2
20260503201549 66 184 7.0 21.7 0.00 0.00 0.00 42 1007.4
20260503200046 65 263 7.8 21.7 0.00 0.00 0.00 45 1007.7
20260503194546 64 234 7.8 17.4 0.00 0.00 0.00 48 1007.9
20260503193047 62 194 7.0 19.1 0.00 0.00 0.00 52 1008.0
20260503191604 60 203 7.8 22.6 0.00 0.00 0.00 55 1008.4
20260503190042 59 136 5.2 16.5 0.00 0.00 0.00 56 1008.5
20260503184544 57 157 7.0 15.6 0.00 0.00 0.00 59 1008.9
20260503183042 56 178 6.1 15.6 0.00 0.00 0.00 62 1009.3
20260503181550 55 163 7.0 15.6 0.00 0.00 0.00 63 1009.7
20260503180049 54 198 5.2 13.9 0.00 0.00 0.00 65 1010.4
20260503174548 54 193 6.1 13.0 0.00 0.00 0.00 66 1011.1
20260503173045 53 240 6.1 14.8 0.00 0.00 0.00 68 1011.7
20260503171545 52 200 6.1 16.5 0.00 0.00 0.00 70 1011.8
20260503081543 46 246 2.6 7.0 0.00 0.00 0.00 56 1013.8
20260503071549 46 233 2.6 7.0 0.00 0.00 0.00 55 1014.0
20260503054604 46 187 1.7 4.3 0.00 0.00 0.00 56 1014.7
20260503053042 46 212 1.7 4.3 0.00 0.00 0.00 55 1014.9